Location: Ash Swamp
(41.5170°N, 74.6157°W)
Time: 02:45:26
(UTC+00:00)

ATLAS 2AS CENTAUR R/B - Pass Details

Date: 14 July 2020
Orbit: 930 x 1282 km, 63.7° (Epoch: 19 July)

Event Time Altitude Azimuth Distance (km) Brightness Sun altitude
Rises 01:38:35 0° 326° (NW) 4,169 7.6 -10.9°
Reaches altitude 10° 01:41:31 10° 331° (NNW) 3,160 6.5 -11.3°
Maximum altitude 01:48:58 58° 49° (NE) 1,312 3.1 -12.3°
Enters shadow 01:54:27 17° 125° (SE) 2,456 4.0 -13.1°
